Probability
1 1 1 1 1 1 1 1 1 0 0 0 0 0 0 0 0 0 0 0 0 0 0 0 0 0 0 0 1 1 1 0 0 0 0 0 0 0
3 3 3 2 2 2 2 2 2 1 1 1 0 0 0 0 0 0 0 0 0 0 0 0 0 0 0 0 0 0 0 0 0 0 0 0 0 0
6 5 4 3 3 3 3 3 3 3 2 2 1 0 0 0 0 0 0 0 0 0 0 0 0 0 0 0 0 0 0 0 0 0 0 0 0 0
7 5 4 3 3 3 3 3 3 3 3 2 1 0 0 0 0 0 0 0 0 0 0 0 0 0 0 0 0 0 0 0 0 0 0 0 0 0
7 5 4 3 3 3 3 3 3 3 3 2 1 0 0 0 0 0 0 0 0 0 0 0 0 0 0 0 0 0 0 0 0 0 0 0 0 0
9 7 5 4 3 3 3 3 3 3 3 2 1 0 0 0 0 0 0 0 0 0 0 0 0 0 0 0 0 0 0 0 0 0 0 0 0 0
10 9 8 6 4 3 3 3 3 3 3 1 0 0 0 0 0 0 0 0 0 0 0 0 0 0 0 0 0 0 0 0 0 0 0 0 0 0
11 11 11 8 6 4 3 3 3 3 2 1 0 0 0 0 0 0 0 0 0 0 0 0 0 0 0 0 0 0 0 0 0 0 0 0 0 0
11 12 11 9 7 5 4 3 3 3 2 1 0 0 0 0 0 0 0 0 0 0 0 0 0 0 0 0 0 0 0 0 0 0 0 0 0 0
11 11 11 9 6 5 5 4 3 2 1 0 0 0 0 0 0 0 0 0 0 0 0 0 0 0 0 0 0 0 0 0 0 0 0 0 0 0
8 8 9 7 4 3 5 6 5 2 0 0 0 0 0 0 0 0 0 0 0 0 0 0 0 0 0 0 0 0 0 0 0 0 0 0 0 0
4 4 4 3 2 1 3 5 4 2 1 0 0 0 0 0 0 0 0 0 0 0 0 0 0 0 0 0 0 0 0 0 0 0 0 0 0 0
1 2 2 1 0 0 1 2 2 2 1 0 0 0 0 0 0 0 0 0 0 0 0 0 0 0 0 0 0 0 0 0 0 0 0 0 0 0
0 1 1 1 0 0 0 0 1 1 0 0 0 0 0 0 0 0 0 0 0 0 0 0 0 0 0 0 0 0 0 0 0 0 0 0 0 0
0 0 0 0 0 0 0 0 0 0 0 1 0 0 1 1 0 0 0 0 0 0 0 0 0 0 0 0 0 0 0 0 0 0 0 0 0 0
0 0 0 0 0 0 0 0 0 0 0 0 0 0 0 1 1 1 1 1 0 0 0 0 0 0 0 0 0 0 0 0 0 0 0 0 0 0
0 0 0 1 1 1 0 0 0 0 0 0 0 0 1 1 2 2 2 1 0 0 0 0 0 0 0 0 0 0 0 0 0 0 0 0 0 0
0 0 1 2 2 2 1 1 1 1 0 0 0 1 2 2 2 2 2 1 0 0 0 0 0 0 0 0 0 0 0 0 0 0 0 0 0 0
1 1 1 3 3 3 3 2 2 2 1 1 1 1 2 1 1 1 1 0 0 0 0 0 0 0 0 0 0 0 0 0 0 0 0 0 0 0
2 2 3 3 3 3 3 3 3 3 3 2 1 1 1 0 0 0 0 0 0 0 0 0 0 0 0 0 0 0 0 0 0 0 0 0 0 0
3 3 3 3 3 3 3 3 3 3 3 2 1 0 0 0 0 0 0 0 0 0 0 0 0 0 0 0 0 0 0 0 0 0 0 0 0 0
3 3 3 3 3 3 3 3 2 2 2 1 1 0 0 0 0 0 0 0 0 0 0 0 0 0 0 0 0 0 0 0 0 0 0 0 0 0
3 3 3 3 3 3 3 2 1 1 1 0 0 0 0 0 0 0 1 1 1 0 0 0 0 0 0 0 0 0 0 0 0 0 0 0 0 0
Wind_Speed
2 2 1 1 1 1 2 3 3 2 2 2 1 1 0 1 1 1 1 1 2 2 2 2 2 3 2 2 2 2 1 1 2 2 2 3 3 4
2 2 1 1 1 1 1 1 2 3 2 2 2 1 1 1 1 1 1 2 2 2 2 2 2 2 2 3 3 2 1 1 1 1 1 1 1 1
2 2 2 2 1 1 1 1 1 2 2 2 1 0 1 1 0 1 0 0 1 2 2 2 2 2 2 2 2 2 2 2 1 1 1 1 1 1
3 2 2 1 1 1 1 1 1 1 2 2 1 0 1 2 1 1 0 0 1 1 2 2 2 2 2 2 2 3 2 2 2 1 1 1 1 1
3 3 2 2 1 1 1 1 1 1 1 2 1 1 0 1 0 0 0 0 0 1 2 2 2 2 3 3 3 3 2 2 1 1 1 1 1 0
3 3 3 3 3 2 2 2 1 1 1 1 1 1 1 1 1 1 0 1 1 0 0 1 2 2 3 3 4 3 3 2 2 1 1 1 1 1
2 2 3 3 3 3 2 2 2 2 1 1 1 1 1 1 2 2 2 1 1 0 0 0 0 0 2 3 4 4 4 3 2 2 1 1 0 0
3 2 2 2 2 3 4 4 4 4 3 3 2 2 3 3 2 2 2 1 1 1 1 1 1 1 2 1 3 4 5 4 4 3 3 2 2 1
3 2 2 1 1 1 2 2 3 4 5 5 4 4 4 4 4 3 3 3 3 2 2 1 1 2 2 2 4 5 5 5 5 5 4 3 2 1
3 4 3 2 2 2 2 1 2 2 3 3 4 5 4 4 5 5 4 2 0 1 2 2 1 2 2 2 4 5 5 5 5 5 5 4 3 3
2 3 3 2 3 4 3 2 2 2 2 3 4 3 3 4 4 3 2 2 1 2 1 2 1 1 1 2 3 5 6 6 6 6 6 5 5 4
1 2 3 3 3 4 4 3 3 3 2 2 2 2 1 2 3 4 5 4 2 2 2 2 2 1 1 2 1 2 3 4 5 5 5 5 5 3
2 2 2 3 2 3 3 3 4 3 1 1 1 1 1 1 1 2 3 4 4 3 3 3 2 2 2 1 2 2 2 2 2 3 5 5 6 5
4 3 2 3 2 2 2 2 1 1 1 1 0 1 1 1 1 1 2 2 3 4 4 4 3 3 3 2 2 2 2 2 2 3 3 4 5 6
2 3 3 3 2 1 2 1 2 1 1 1 1 2 2 2 1 0 0 0 1 1 2 3 3 3 3 3 3 2 1 2 3 3 3 3 4 3
2 2 3 2 1 0 0 0 1 1 2 2 2 2 1 0 1 1 1 1 0 2 2 2 3 3 3 3 3 3 3 2 3 4 3 3 3 4
3 1 1 1 0 0 0 0 0 0 1 1 1 1 1 1 1 1 1 1 1 2 3 2 2 2 4 4 3 3 3 3 3 3 3 3 4 5
5 2 2 3 3 2 2 1 1 1 2 1 1 1 1 2 2 1 1 2 2 3 3 2 1 0 1 3 6 5 4 4 3 3 3 4 5 5
4 3 3 3 3 3 2 2 2 2 2 2 1 1 1 1 1 1 2 2 2 3 3 2 2 2 3 5 5 7 6 4 3 3 4 5 5 5
3 3 3 3 3 3 3 2 2 1 1 1 1 1 1 1 1 1 2 2 3 3 2 2 3 4 5 5 4 4 7 5 4 5 4 3 3 4
4 3 3 3 3 3 3 3 2 2 1 1 1 1 1 1 1 2 2 3 3 3 3 4 5 6 3 1 2 4 4 7 7 5 4 3 2 2
3 3 2 2 2 2 2 2 2 2 2 1 1 1 1 1 2 2 2 2 3 3 4 3 3 1 1 3 4 5 4 4 5 7 7 7 5 5
3 2 2 2 2 2 2 2 2 2 1 1 1 1 1 1 2 2 2 2 2 3 3 3 2 1 2 3 4 4 4 4 2 2 4 6 8 9
Wind_Direction
185 179 186 213 200 193 173 167 167 203 246 254 272 276 208 155 160 196 211 159 162 188 202 200 195 199 203 200 190 186 207 246 245 240 245 248 251 244
173 165 190 206 208 212 196 190 175 178 220 236 231 248 188 153 141 205 215 165 178 182 176 166 171 185 192 188 175 172 175 184 194 201 243 251 239 248
185 179 200 189 192 222 198 183 188 175 204 260 248 233 162 182 247 274 223 195 231 185 170 167 172 182 181 169 162 154 142 131 128 130 116 121 149 192
190 179 208 187 199 224 202 206 205 196 184 233 255 220 216 212 194 208 213 182 226 188 161 166 165 170 160 149 142 135 127 116 100 87 88 102 110 115
185 183 201 175 213 234 210 212 224 216 186 187 231 245 255 198 133 241 211 355 230 155 156 175 173 165 162 158 154 150 140 125 109 86 75 70 67 63
186 192 200 194 204 212 212 217 209 211 200 180 212 248 257 232 155 195 290 304 265 221 105 159 183 202 200 187 178 168 161 155 149 132 106 79 46 38
202 213 211 193 186 196 199 206 194 202 202 195 210 232 238 209 216 207 211 235 268 242 220 263 184 249 243 220 205 193 187 187 189 186 175 161 145 94
209 233 232 211 217 217 212 202 192 193 203 203 211 220 233 222 211 195 176 157 250 240 168 240 170 227 258 232 219 211 206 204 207 206 203 200 189 178
195 205 229 232 211 224 229 226 228 222 204 197 204 220 219 216 200 197 190 183 209 211 155 218 208 231 244 233 217 214 216 219 218 217 214 215 211 203
191 194 195 210 219 199 203 220 246 243 227 212 213 225 223 217 201 199 196 183 260 199 149 182 220 231 242 239 227 215 217 224 227 222 214 215 218 225
210 195 187 202 226 190 178 202 250 280 267 241 234 230 217 198 177 154 153 149 211 245 191 167 202 224 255 249 243 226 220 221 223 223 219 218 220 220
230 220 200 198 205 182 180 188 220 253 275 304 293 285 237 212 191 184 180 174 174 228 216 171 178 150 261 275 246 231 224 232 226 224 224 225 216 200
215 219 228 211 185 179 184 200 226 227 221 220 247 284 321 286 231 214 189 177 178 216 203 165 172 170 181 245 276 231 212 221 221 231 233 229 220 200
213 219 220 204 187 187 193 218 200 169 146 153 211 250 262 274 267 234 207 203 204 209 197 167 171 182 173 193 249 262 237 227 210 219 229 230 229 224
212 209 189 179 180 198 216 201 163 151 156 176 218 241 241 238 236 269 325 309 306 264 196 183 175 179 179 192 207 211 226 242 217 218 222 221 223 214
194 191 176 160 154 175 76 170 170 174 176 205 233 251 272 246 216 202 202 183 242 294 288 224 198 182 198 214 202 213 202 215 224 225 223 230 231 218
153 113 101 112 151 286 297 277 219 133 200 228 229 238 251 245 246 222 191 176 208 247 273 275 242 219 211 201 215 226 222 230 224 210 207 231 239 229
146 161 179 184 191 198 203 223 223 219 224 217 215 217 228 235 239 229 203 202 224 243 251 250 227 336 333 277 219 217 224 229 231 214 202 216 241 237
150 178 186 190 196 195 198 203 214 221 210 198 205 217 221 230 232 232 226 227 235 244 250 237 206 199 236 268 265 216 214 230 223 222 219 216 233 239
183 190 196 197 196 197 201 207 214 205 185 194 200 211 213 210 226 242 236 233 239 244 252 242 220 216 225 240 254 260 226 217 215 225 230 229 246 259
192 199 200 197 199 199 198 201 197 193 194 193 207 214 213 207 239 252 252 252 243 242 245 248 245 246 237 229 271 276 265 233 219 214 210 212 236 247
183 190 198 201 200 196 193 191 187 190 196 198 218 227 223 211 227 240 242 243 244 246 252 263 274 263 208 230 249 259 270 279 257 246 223 202 194 210
184 183 188 194 193 186 182 174 172 186 195 204 225 241 236 236 243 242 243 243 248 259 265 273 286 267 246 243 252 257 264 268 269 273 269 252 241 243